Carmi, IL

4:26 AM CST on November 22, 2017 (GMT -0600)
Carmi Municipal

Weather History for KCUL - March, 2014

Change the Weather History Date:

Saturday, March 29, 2014

  Actual Average (KEHR) Record (KEHR)
Temperature  
Mean Temperature 41 °F -  
Max Temperature 47 °F 65 °F 82 °F (1963)
Min Temperature 36 °F 44 °F 14 °F (2015)
Degree Days  
Heating Degree Days 24    
Moisture  
Dew Point 39 °F    
Average Humidity 87    
Maximum Humidity 99    
Minimum Humidity 68    
Precipitation  
Precipitation 0.36 in - - ()
Sea Level Pressure  
Sea Level Pressure 30.11 in    
Wind  
Wind Speed 13 mph (NNW)    
Max Wind Speed 23 mph    
Max Gust Speed 29 mph    
Visibility 6 miles    
Events Rain , Thunderstorm    
Averages and records for this station are not official NWS values.
T = Trace of Precipitation, MM = Missing Value Source: NWS Daily Summary

Daily Weather History Graph

Daily Weather History Graph

Search for Another Location

Airport or City:

Trip Planner

Search our weather history database for the weather conditions in past years. The results will help you decide how hot, cold, wet, or windy it might be!

Date:

Astronomy

Mar. 29, 2014 Rise Set
Actual Time 6:42 AM CDT 7:12 PM CDT
Civil Twilight 6:15 AM CDT 7:39 PM CDT
Nautical Twilight 5:44 AM CDT 8:10 PM CDT
Astronomical Twilight 5:12 AM CDT 8:42 PM CDT
Moon 5:49 AM CDT (3/29) 6:18 PM CDT (3/29)
Length of Visible Light 13h 23m
Length of Day
12h 30m
Waning Crescent, 2% of the Moon is Illuminated
Mar 29
Waning Crescent
Mar 30
New
Apr 7
First Quarter
Apr 15
Full
Apr 22
Last Quarter

Hourly Weather History & Observations

Time (CDT) Temp. Windchill Dew Point Humidity Pressure Visibility Wind Dir Wind Speed Gust Speed Precip Events Conditions
12:15 AM 45.9 °F 40.8 °F 44.1 °F 93% 30.06 in 4.0 mi NNW 10.4 mph - 0.13 in Rain Rain
12:35 AM 45.5 °F 40.8 °F 44.2 °F 95% 30.06 in 7.0 mi North 9.2 mph - 0.18 in Rain Rain
1:15 AM 45.0 °F 39.7 °F 43.9 °F 96% 30.05 in 5.0 mi North 10.4 mph - 0.03 in Rain Rain
1:35 AM 45.0 °F 38.2 °F 44.1 °F 97% 30.02 in 5.0 mi North 15.0 mph - 0.07 in Rain Rain
1:55 AM 44.8 °F 39.9 °F 43.7 °F 96% 30.04 in 5.0 mi NNE 9.2 mph - 0.08 in Rain Rain
2:15 AM 44.8 °F 39.4 °F 43.7 °F 96% 30.03 in 5.0 mi NNE 10.4 mph - 0.03 in Rain , Thunderstorm Rain
2:35 AM 44.6 °F 37.8 °F 43.5 °F 96% 30.01 in 4.0 mi NNE 15.0 mph - 0.07 in Rain Rain
2:55 AM 44.6 °F 39.2 °F 43.3 °F 95% 30.00 in 5.0 mi North 10.4 mph - 0.09 in Rain Light Rain
3:15 AM 44.2 °F 36.7 °F 43.2 °F 96% 29.98 in 5.0 mi North 17.3 mph - 0.01 in Rain Light Rain
3:35 AM 44.1 °F 37.1 °F 43.2 °F 97% 29.98 in 5.0 mi North 15.0 mph - 0.01 in Rain Light Rain
3:55 AM 43.9 °F 37.5 °F 43.0 °F 97% 29.99 in 5.0 mi North 12.7 mph 18.4 mph 0.01 in   Overcast
4:15 AM 43.9 °F 37.2 °F 43.0 °F 97% 29.98 in 5.0 mi North 13.8 mph - 0.01 in Rain Light Rain
4:35 AM 43.7 °F 36.0 °F 42.8 °F 97% 29.98 in 4.0 mi North 17.3 mph - 0.01 in Rain Rain
4:55 AM 43.3 °F 37.2 °F 42.8 °F 98% 29.99 in 4.0 mi North 11.5 mph - 0.02 in Rain Rain
5:15 AM 43.2 °F 36.6 °F 42.8 °F 99% 29.98 in 3.0 mi North 12.7 mph - 0.04 in Rain Rain
5:35 AM 43.0 °F 36.4 °F 42.4 °F 98% 29.98 in 4.0 mi North 12.7 mph 17.3 mph 0.06 in Rain Rain
5:55 AM 42.8 °F 37.0 °F 42.3 °F 98% 29.98 in 4.0 mi NNE 10.4 mph - 0.07 in Rain Light Rain
6:15 AM 42.8 °F 36.6 °F 42.1 °F 97% 29.99 in 4.0 mi North 11.5 mph - 0.02 in Rain Rain
6:35 AM 42.4 °F 36.1 °F 42.1 °F 99% 30.00 in 4.0 mi North 11.5 mph - 0.04 in Rain Light Rain
6:55 AM 42.4 °F 37.0 °F 41.9 °F 98% 30.02 in 5.0 mi NNW 9.2 mph - 0.04 in   Drizzle
7:15 AM 42.4 °F 36.5 °F 42.1 °F 99% 30.03 in 5.0 mi NNW 10.4 mph - 0.01 in Rain Light Rain
7:35 AM 42.4 °F 36.5 °F 42.1 °F 99% 30.04 in 4.0 mi NNW 10.4 mph - 0.01 in Rain Rain
7:55 AM 42.3 °F 35.5 °F 41.9 °F 99% 30.05 in 4.0 mi NNW 12.7 mph - 0.03 in Rain Rain
8:15 AM 41.9 °F 34.0 °F 41.4 °F 98% 30.06 in 4.0 mi NNW 16.1 mph 20.7 mph 0.01 in Rain Light Rain
8:35 AM 40.8 °F 32.3 °F 40.1 °F 97% 30.06 in 4.0 mi NNW 17.3 mph 23.0 mph 0.01 in   Light Drizzle
8:55 AM 40.8 °F 32.9 °F 40.1 °F 97% 30.07 in 4.0 mi NNW 15.0 mph - 0.01 in   Overcast
9:15 AM 41.0 °F 33.9 °F 40.3 °F 97% 30.08 in 4.0 mi NNW 12.7 mph - N/A   Overcast
9:35 AM 41.0 °F 32.8 °F 39.9 °F 96% 30.09 in 4.0 mi NNW 16.1 mph 23.0 mph N/A   Overcast
9:55 AM 41.4 °F 33.0 °F 40.3 °F 96% 30.09 in 4.0 mi NNW 17.3 mph - N/A   Overcast
10:15 AM 41.9 °F 34.0 °F 40.1 °F 93% 30.09 in 5.0 mi NNW 16.1 mph 21.9 mph N/A   Overcast
10:35 AM 43.3 °F 35.8 °F 40.8 °F 91% 30.09 in 5.0 mi NNW 16.1 mph 19.6 mph N/A   Overcast
10:55 AM 44.4 °F 35.9 °F 39.4 °F 82% 30.09 in 7.0 mi NNW 21.9 mph 27.6 mph N/A   Overcast
11:15 AM 45.9 °F 38.8 °F 40.3 °F 81% 30.09 in 10.0 mi NNW 17.3 mph 24.2 mph 0.01 in   Mostly Cloudy
11:35 AM 45.1 °F 36.9 °F 39.0 °F 79% 30.10 in 7.0 mi NW 21.9 mph - 0.01 in   Overcast
11:55 AM 44.8 °F 36.6 °F 38.5 °F 79% 30.10 in 7.0 mi NNW 20.7 mph 26.5 mph 0.01 in   Overcast
12:15 PM 44.8 °F 37.7 °F 38.5 °F 79% 30.10 in 7.0 mi NW 16.1 mph 23.0 mph N/A   Overcast
12:35 PM 45.1 °F 38.1 °F 38.5 °F 77% 30.10 in 7.0 mi NNW 16.1 mph 26.5 mph N/A   Overcast
12:55 PM 45.5 °F 37.3 °F 38.3 °F 76% 30.10 in 7.0 mi NNW 21.9 mph 26.5 mph N/A   Overcast
1:15 PM 46.4 °F 38.3 °F 38.7 °F 74% 30.09 in 7.0 mi NW 23.0 mph 28.8 mph N/A   Overcast
1:35 PM 45.3 °F 37.3 °F 37.9 °F 75% 30.10 in 7.0 mi NW 20.7 mph 27.6 mph N/A   Overcast
1:55 PM 45.0 °F 37.1 °F 37.8 °F 76% 30.10 in 7.0 mi NW 19.6 mph 26.5 mph N/A   Overcast
2:15 PM 45.3 °F 37.6 °F 37.6 °F 74% 30.11 in 7.0 mi NW 19.6 mph 26.5 mph N/A   Overcast
2:35 PM 45.5 °F 37.8 °F 37.4 °F 73% 30.11 in 7.0 mi NW 19.6 mph 25.3 mph N/A   Overcast
2:55 PM 45.5 °F 38.1 °F 37.2 °F 73% 30.12 in 7.0 mi NW 18.4 mph 24.2 mph N/A   Overcast
3:15 PM 45.1 °F 37.1 °F 37.0 °F 73% 30.13 in 7.0 mi NW 20.7 mph 27.6 mph N/A   Overcast
3:35 PM 45.3 °F 37.6 °F 36.9 °F 72% 30.13 in 10.0 mi NW 19.6 mph 26.5 mph N/A   Overcast
3:55 PM 45.5 °F 37.8 °F 37.0 °F 72% 30.14 in 10.0 mi NW 19.6 mph 25.3 mph N/A   Overcast
4:15 PM 45.3 °F 38.4 °F 37.4 °F 74% 30.14 in 7.0 mi NW 16.1 mph 24.2 mph N/A   Overcast
4:35 PM 45.5 °F 38.9 °F 37.2 °F 73% 30.15 in 7.0 mi NW 15.0 mph 20.7 mph N/A   Overcast
4:55 PM 45.5 °F 38.6 °F 36.7 °F 71% 30.15 in 10.0 mi NW 16.1 mph 23.0 mph N/A   Overcast
5:15 PM 45.9 °F 39.7 °F 37.2 °F 72% 30.17 in 10.0 mi NW 13.8 mph 19.6 mph N/A   Overcast
5:35 PM 46.9 °F - 37.0 °F 68% 30.17 in 10.0 mi NW 12.7 mph 18.4 mph N/A   Overcast
5:55 PM 46.8 °F - 37.4 °F 70% 30.18 in 10.0 mi NNW 15.0 mph - N/A   Overcast
6:15 PM 45.5 °F 39.6 °F 37.4 °F 73% 30.19 in 10.0 mi NW 12.7 mph 19.6 mph N/A   Overcast
6:35 PM 45.0 °F 37.9 °F 36.7 °F 73% 30.20 in 10.0 mi NNW 16.1 mph 19.6 mph N/A   Overcast
6:55 PM 44.8 °F 38.3 °F 35.8 °F 71% 30.20 in 10.0 mi NNW 13.8 mph 21.9 mph N/A   Overcast
7:15 PM 44.4 °F 37.5 °F 36.0 °F 72% 30.21 in 10.0 mi NNW 15.0 mph 23.0 mph N/A   Overcast
7:35 PM 43.9 °F 38.3 °F 36.3 °F 75% 30.22 in 10.0 mi North 10.4 mph - N/A   Mostly Cloudy
7:55 PM 42.3 °F 36.3 °F 36.9 °F 81% 30.22 in 10.0 mi North 10.4 mph - N/A   Scattered Clouds
8:15 PM 41.5 °F 37.8 °F 36.9 °F 83% 30.22 in 10.0 mi NNW 5.8 mph - N/A   Clear
8:35 PM 40.3 °F 37.1 °F 36.5 °F 86% 30.23 in 7.0 mi NNW 4.6 mph - N/A   Clear
8:55 PM 39.6 °F 34.0 °F 36.3 °F 88% 30.24 in 7.0 mi NW 8.1 mph - N/A   Clear
9:10 PM 39.7 °F 34.9 °F 36.5 °F 88% 30.25 in 7.0 mi NNW 6.9 mph - N/A   Clear
9:35 PM 39.6 °F 34.7 °F 36.5 °F 89% 30.26 in 7.0 mi NW 6.9 mph - N/A   Scattered Clouds
9:55 PM 39.7 °F 36.5 °F 36.7 °F 89% 30.25 in 7.0 mi NW 4.6 mph - N/A   Mostly Cloudy
10:15 PM 37.8 °F 33.3 °F 35.6 °F 92% 30.25 in 7.0 mi NW 5.8 mph - N/A   Scattered Clouds
10:35 PM 37.4 °F 33.8 °F 35.2 °F 92% 30.24 in 7.0 mi NW 4.6 mph - N/A   Clear
10:55 PM 36.7 °F 32.0 °F 34.9 °F 93% 30.25 in 7.0 mi West 5.8 mph - N/A   Clear
11:15 PM 36.5 °F 31.0 °F 34.7 °F 93% 30.25 in 7.0 mi NW 6.9 mph - N/A   Clear
11:35 PM 36.9 °F 31.4 °F 34.7 °F 92% 30.25 in 7.0 mi NW 6.9 mph - N/A   Clear
11:55 PM 36.7 °F 31.2 °F 34.2 °F 91% 30.24 in 7.0 mi NNW 6.9 mph - N/A   Clear